"read_dt","SO2 (ppb)","flags","PMT voltage (V)","lamp voltage (V)","lamp intensity (Hz)","internal temp (C)","react chamber temp (C)","sample flow (l/min)","pres (mmHg)","SO2 bkg (ppb)","SO2 coefficient"
2014-05-20 00:00:00,1711E-3,5C000000,-0724,0858,11867,027.0,045.5,0.496,740.9,01.18,0.508
2014-05-20 00:01:00,1728E-3,5C000000,-0724,0858,12027,027.0,045.5,0.496,740.9,01.18,0.508
2014-05-20 00:02:00,1774E-3,5C000000,-0724,0857,12006,027.0,045.5,0.496,740.9,01.18,0.508
2014-05-20 00:03:00,1742E-3,5C000000,-0724,0858,11913,027.0,045.5,0.496,740.9,01.18,0.508
2014-05-20 00:04:00,1681E-3,5C000000,-0724,0858,11764,027.1,045.5,0.495,740.9,01.18,0.508
2014-05-20 00:05:00,1631E-3,5C000000,-0724,0857,11910,027.1,045.5,0.496,740.9,01.18,0.508
2014-05-20 00:06:00,1705E-3,5C000000,-0724,0857,11895,027.1,045.5,0.496,740.9,01.18,0.508
2014-05-20 00:07:00,1825E-3,5C000000,-0724,0858,11968,027.1,045.5,0.496,740.8,01.18,0.508
2014-05-20 00:08:00,1891E-3,5C000000,-0724,0858,11862,027.1,045.5,0.496,740.8,01.18,0.508
2014-05-20 00:09:00,1671E-3,5C000000,-0724,0857,11892,027.1,045.5,0.495,740.8,01.18,0.508
2014-05-20 00:10:00,1545E-3,5C000000,-0724,0857,11949,027.2,045.5,0.496,740.7,01.18,0.508
2014-05-20 00:11:00,1760E-3,5C000000,-0724,0858,11896,027.2,045.5,0.496,740.7,01.18,0.508
2014-05-20 00:12:00,1909E-3,5C000000,-0724,0858,11971,027.2,045.5,0.496,740.7,01.18,0.508
2014-05-20 00:13:00,1676E-3,5C000000,-0724,0858,11952,027.2,045.5,0.496,740.6,01.18,0.508
2014-05-20 00:14:00,1782E-3,5C000000,-0724,0858,12020,027.2,045.5,0.495,740.6,01.18,0.508
2014-05-20 00:15:00,1762E-3,5C000000,-0724,0858,12066,027.2,045.5,0.496,740.6,01.18,0.508
2014-05-20 00:16:00,1811E-3,5C000000,-0724,0857,11884,027.2,045.5,0.495,740.6,01.18,0.508
2014-05-20 00:17:00,1728E-3,5C000000,-0724,0858,11789,027.2,045.5,0.496,740.6,01.18,0.508
2014-05-20 00:18:00,1825E-3,5C000000,-0724,0857,11882,027.2,045.5,0.496,740.6,01.18,0.508
2014-05-20 00:19:00,1701E-3,5C000000,-0724,0858,11891,027.2,045.5,0.495,740.6,01.18,0.508
2014-05-20 00:20:00,1702E-3,5C000000,-0724,0858,12032,027.2,045.5,0.496,740.6,01.18,0.508
2014-05-20 00:21:00,1738E-3,5C000000,-0724,0857,11872,027.3,045.5,0.495,740.6,01.18,0.508
2014-05-20 00:22:00,1759E-3,5C000000,-0724,0858,11927,027.3,045.5,0.496,740.6,01.18,0.508
2014-05-20 00:23:00,1749E-3,5C000000,-0724,0857,11981,027.3,045.5,0.495,740.6,01.18,0.508
2014-05-20 00:24:00,1860E-3,5C000000,-0724,0858,11777,027.3,045.5,0.495,740.6,01.18,0.508
2014-05-20 00:25:00,1754E-3,5C000000,-0724,0857,11777,027.3,045.5,0.495,740.6,01.18,0.508
2014-05-20 00:26:00,1615E-3,5C000000,-0724,0857,11820,027.3,045.5,0.495,740.6,01.18,0.508
2014-05-20 00:27:00,1802E-3,5C000000,-0724,0857,12073,027.3,045.5,0.496,740.6,01.18,0.508
2014-05-20 00:28:00,1674E-3,5C000000,-0724,0857,11867,027.3,045.5,0.495,740.6,01.18,0.508
2014-05-20 00:29:00,1687E-3,5C000000,-0724,0857,11976,027.3,045.5,0.496,740.6,01.18,0.508
2014-05-20 00:30:00,1771E-3,5C000000,-0724,0858,11903,027.4,045.5,0.495,740.6,01.18,0.508
2014-05-20 00:31:00,1707E-3,5C000000,-0724,0857,12014,027.4,045.5,0.496,740.6,01.18,0.508
2014-05-20 00:32:00,1727E-3,5C000000,-0724,0857,11817,027.4,045.5,0.495,740.6,01.18,0.508
2014-05-20 00:33:00,1862E-3,5C000000,-0724,0857,11914,027.4,045.5,0.496,740.6,01.18,0.508
2014-05-20 00:34:00,1723E-3,5C000000,-0724,0856,11852,027.4,045.5,0.495,740.6,01.18,0.508
2014-05-20 00:35:00,1595E-3,5C000000,-0724,0858,11941,027.4,045.5,0.495,740.6,01.18,0.508
2014-05-20 00:36:00,1672E-3,5C000000,-0724,0857,11763,027.4,045.5,0.495,740.6,01.18,0.508
2014-05-20 00:37:00,1757E-3,5C000000,-0724,0856,11927,027.4,045.5,0.495,740.6,01.18,0.508
2014-05-20 00:38:00,1801E-3,5C000000,-0724,0859,11950,027.4,045.5,0.495,740.6,01.18,0.508
2014-05-20 00:39:00,1809E-3,5C000000,-0724,0858,11995,027.5,045.5,0.495,740.6,01.18,0.508
2014-05-20 00:40:00,1701E-3,5C000000,-0724,0857,11985,027.5,045.5,0.495,740.6,01.18,0.508
2014-05-20 00:41:00,1668E-3,5C000000,-0724,0857,12010,027.5,045.5,0.495,740.6,01.18,0.508
2014-05-20 00:42:00,1720E-3,5C000000,-0724,0858,11858,027.5,045.5,0.495,740.6,01.18,0.508
2014-05-20 00:43:00,1653E-3,5C000000,-0724,0858,11797,027.5,045.5,0.495,740.6,01.18,0.508
2014-05-20 00:44:00,1754E-3,5C000000,-0724,0858,11859,027.5,045.5,0.495,740.6,01.18,0.508
2014-05-20 00:45:00,1664E-3,5C000000,-0724,0857,12012,027.5,045.5,0.495,740.6,01.18,0.508
2014-05-20 00:46:00,1699E-3,5C000000,-0724,0858,12142,027.5,045.5,0.495,740.6,01.18,0.508
2014-05-20 00:47:00,1768E-3,5C000000,-0724,0858,11720,027.5,045.5,0.495,740.6,01.18,0.508
2014-05-20 00:48:00,1908E-3,5C000000,-0724,0858,11979,027.6,045.5,0.495,740.6,01.18,0.508
2014-05-20 00:49:00,1753E-3,5C000000,-0724,0858,11795,027.5,045.5,0.495,740.6,01.18,0.508
2014-05-20 00:50:00,1848E-3,5C000000,-0724,0858,11827,027.6,045.5,0.495,740.6,01.18,0.508
2014-05-20 00:51:00,1795E-3,5C000000,-0724,0858,11960,027.6,045.5,0.495,740.6,01.18,0.508
2014-05-20 00:52:00,1858E-3,5C000000,-0724,0858,11927,027.6,045.5,0.495,740.6,01.18,0.508
2014-05-20 00:53:00,1724E-3,5C000000,-0724,0859,12051,027.6,045.5,0.495,740.6,01.18,0.508
2014-05-20 00:54:00,1640E-3,5C000000,-0724,0858,11982,027.6,045.5,0.495,740.6,01.18,0.508
2014-05-20 00:55:00,1746E-3,5C000000,-0724,0858,11965,027.6,045.5,0.495,740.6,01.18,0.508
2014-05-20 00:56:00,1822E-3,5C000000,-0724,0857,11929,027.6,045.5,0.495,740.6,01.18,0.508
2014-05-20 00:57:00,1699E-3,5C000000,-0724,0858,12062,027.6,045.5,0.495,740.6,01.18,0.508
2014-05-20 00:58:00,1859E-3,5C000000,-0724,0858,11833,027.7,045.5,0.495,740.6,01.18,0.508
2014-05-20 00:59:00,1912E-3,5C000000,-0724,0857,12026,027.7,045.5,0.495,740.6,01.18,0.508
2014-05-20 01:00:00,1754E-3,5C000000,-0724,0858,11847,027.7,045.5,0.494,740.6,01.18,0.508
2014-05-20 01:01:00,1641E-3,5C000000,-0724,0857,12113,027.7,045.5,0.495,740.6,01.18,0.508
2014-05-20 01:02:00,1708E-3,5C000000,-0724,0857,11712,027.7,045.5,0.495,740.6,01.18,0.508
2014-05-20 01:03:00,1734E-3,5C000000,-0724,0857,12059,027.7,045.5,0.494,740.6,01.18,0.508
2014-05-20 01:04:00,1712E-3,5C000000,-0724,0858,11770,027.7,045.5,0.495,740.6,01.18,0.508
2014-05-20 01:05:00,1780E-3,5C000000,-0724,0857,11980,027.7,045.5,0.495,740.6,01.18,0.508
2014-05-20 01:06:00,1858E-3,5C000000,-0724,0858,11976,027.7,045.5,0.494,740.6,01.18,0.508
2014-05-20 01:07:00,1784E-3,5C000000,-0724,0858,11891,027.7,045.5,0.495,740.6,01.18,0.508
2014-05-20 01:08:00,1905E-3,5C000000,-0724,0857,12012,027.8,045.5,0.495,740.6,01.18,0.508
2014-05-20 01:09:00,1809E-3,5C000000,-0724,0858,11739,027.8,045.5,0.494,740.6,01.18,0.508
2014-05-20 01:10:00,1876E-3,5C000000,-0724,0858,11746,027.8,045.5,0.494,740.6,01.18,0.508
2014-05-20 01:11:00,1701E-3,5C000000,-0724,0857,11804,027.8,045.5,0.495,740.6,01.18,0.508
2014-05-20 01:12:00,1831E-3,5C000000,-0724,0858,11867,027.8,045.5,0.495,740.6,01.18,0.508
2014-05-20 01:13:00,1881E-3,5C000000,-0724,0858,11905,027.8,045.5,0.494,740.6,01.18,0.508
2014-05-20 01:14:00,1762E-3,5C000000,-0724,0858,11809,027.8,045.5,0.495,740.6,01.18,0.508
2014-05-20 01:15:00,1757E-3,5C000000,-0724,0858,11952,027.8,045.5,0.495,740.6,01.18,0.508
2014-05-20 01:16:00,1809E-3,5C000000,-0724,0859,12012,027.8,045.5,0.495,740.6,01.18,0.508
2014-05-20 01:17:00,1617E-3,5C000000,-0724,0859,11962,027.9,045.5,0.494,740.6,01.18,0.508
2014-05-20 01:18:00,1717E-3,5C000000,-0724,0858,11972,027.9,045.5,0.494,740.6,01.18,0.508
2014-05-20 01:19:00,1853E-3,5C000000,-0724,0858,11969,027.9,045.5,0.495,740.6,01.18,0.508
2014-05-20 01:20:00,1806E-3,5C000000,-0724,0858,11971,027.9,045.5,0.495,740.6,01.18,0.508
2014-05-20 01:21:00,1765E-3,5C000000,-0724,0858,11899,027.9,045.5,0.494,740.5,01.18,0.508
2014-05-20 01:22:00,1768E-3,5C000000,-0724,0858,11843,027.9,045.5,0.494,740.6,01.18,0.508
2014-05-20 01:23:00,1777E-3,5C000000,-0724,0858,11891,027.9,045.5,0.495,740.6,01.18,0.508
2014-05-20 01:24:00,1635E-3,5C000000,-0724,0858,12033,027.9,045.5,0.495,740.6,01.18,0.508
2014-05-20 01:25:00,1854E-3,5C000000,-0724,0859,11759,027.9,045.5,0.494,740.5,01.18,0.508
2014-05-20 01:26:00,1673E-3,5C000000,-0724,0859,12002,027.9,045.5,0.494,740.6,01.18,0.508
2014-05-20 01:27:00,1747E-3,5C000000,-0724,0858,11840,028.0,045.5,0.495,740.5,01.18,0.508
2014-05-20 01:28:00,1783E-3,5C000000,-0724,0858,11967,028.0,045.5,0.495,740.5,01.18,0.508
2014-05-20 01:29:00,1746E-3,5C000000,-0724,0858,11945,028.0,045.5,0.494,740.5,01.18,0.508
2014-05-20 01:30:00,1627E-3,5C000000,-0724,0858,11988,028.0,045.5,0.494,740.5,01.18,0.508
2014-05-20 01:31:00,1720E-3,5C000000,-0724,0859,12005,028.0,045.5,0.494,740.5,01.18,0.508
2014-05-20 01:32:00,1756E-3,5C000000,-0724,0858,11849,028.0,045.5,0.495,740.6,01.18,0.508
2014-05-20 01:33:00,1779E-3,5C000000,-0724,0858,11810,028.0,045.5,0.494,740.5,01.18,0.508
2014-05-20 01:34:00,1734E-3,5C000000,-0724,0859,11982,028.0,045.5,0.494,740.5,01.18,0.508
2014-05-20 01:35:00,1698E-3,5C000000,-0724,0859,12027,028.1,045.5,0.494,740.6,01.18,0.508
2014-05-20 01:36:00,1805E-3,5C000000,-0724,0858,11823,028.1,045.5,0.494,740.5,01.18,0.508
2014-05-20 01:37:00,1721E-3,5C000000,-0724,0858,11853,028.0,045.5,0.494,740.5,01.18,0.508
2014-05-20 01:38:00,1745E-3,5C000000,-0724,0858,11825,028.1,045.5,0.494,740.5,01.18,0.508
2014-05-20 01:39:00,1667E-3,5C000000,-0724,0858,11973,028.1,045.5,0.494,740.5,01.18,0.508
2014-05-20 01:40:00,1728E-3,5C000000,-0724,0857,11957,028.1,045.5,0.494,740.5,01.18,0.508
2014-05-20 01:41:00,1899E-3,5C000000,-0724,0858,11911,028.1,045.5,0.494,740.4,01.18,0.508
2014-05-20 01:42:00,1715E-3,5C000000,-0724,0859,12062,028.1,045.5,0.494,740.4,01.18,0.508
2014-05-20 01:43:00,1851E-3,5C000000,-0724,0858,12016,028.1,045.5,0.494,740.4,01.18,0.508
2014-05-20 01:44:00,1833E-3,5C000000,-0724,0858,11826,028.1,045.5,0.494,740.3,01.18,0.508
2014-05-20 01:45:00,1713E-3,5C000000,-0724,0859,12026,028.2,045.5,0.494,740.4,01.18,0.508
2014-05-20 01:46:00,1832E-3,5C000000,-0724,0858,11878,028.2,045.5,0.494,740.4,01.18,0.508
2014-05-20 01:47:00,1758E-3,5C000000,-0724,0859,12080,028.2,045.5,0.494,740.4,01.18,0.508
2014-05-20 01:48:00,1673E-3,5C000000,-0724,0858,11995,028.2,045.5,0.494,740.5,01.18,0.508
2014-05-20 01:49:00,1774E-3,5C000000,-0724,0856,11969,028.2,045.5,0.494,740.5,01.18,0.508
2014-05-20 01:50:00,1729E-3,5C000000,-0724,0858,12015,028.2,045.5,0.494,740.4,01.18,0.508
2014-05-20 01:51:00,1811E-3,5C000000,-0724,0859,11735,028.2,045.5,0.494,740.4,01.18,0.508
2014-05-20 01:52:00,1748E-3,5C000000,-0724,0858,11857,028.2,045.5,0.494,740.3,01.18,0.508
2014-05-20 01:53:00,1658E-3,5C000000,-0724,0857,11815,028.2,045.5,0.494,740.3,01.18,0.508
2014-05-20 01:54:00,1778E-3,5C000000,-0724,0858,11900,028.2,045.5,0.494,740.3,01.18,0.508
2014-05-20 01:55:00,1796E-3,5C000000,-0724,0858,11869,028.3,045.5,0.494,740.3,01.18,0.508
2014-05-20 01:56:00,1700E-3,5C000000,-0724,0857,11946,028.3,045.5,0.494,740.3,01.18,0.508
2014-05-20 01:57:00,1718E-3,5C000000,-0724,0858,11888,028.3,045.5,0.494,740.3,01.18,0.508
2014-05-20 01:58:00,1696E-3,5C000000,-0724,0857,11771,028.3,045.5,0.494,740.2,01.18,0.508
2014-05-20 01:59:00,1781E-3,5C000000,-0724,0858,11971,028.3,045.5,0.494,740.2,01.18,0.508
2014-05-20 02:00:00,1713E-3,5C000000,-0724,0859,11827,028.3,045.5,0.494,740.3,01.18,0.508
2014-05-20 02:01:00,1731E-3,5C000000,-0724,0859,11803,028.3,045.5,0.494,740.2,01.18,0.508
2014-05-20 02:02:00,1716E-3,5C000000,-0724,0858,11670,028.3,045.5,0.493,740.2,01.18,0.508
2014-05-20 02:03:00,1793E-3,5C000000,-0724,0858,11826,028.4,045.5,0.494,740.2,01.18,0.508
2014-05-20 02:04:00,1733E-3,5C000000,-0724,0858,11844,028.4,045.5,0.494,740.2,01.18,0.508
2014-05-20 02:05:00,1758E-3,5C000000,-0724,0857,11941,028.4,045.5,0.494,740.2,01.18,0.508
2014-05-20 02:06:00,1690E-3,5C000000,-0724,0857,11761,028.4,045.5,0.494,740.2,01.18,0.508
2014-05-20 02:07:00,1823E-3,5C000000,-0724,0858,11900,028.4,045.5,0.494,740.1,01.18,0.508
2014-05-20 02:08:00,1690E-3,5C000000,-0724,0859,12043,028.4,045.5,0.494,740.1,01.18,0.508
2014-05-20 02:09:00,1694E-3,5C000000,-0724,0858,11831,028.4,045.5,0.494,740.1,01.18,0.508
2014-05-20 02:10:00,1708E-3,5C000000,-0724,0857,11953,028.4,045.5,0.494,740.1,01.18,0.508
2014-05-20 02:11:00,1760E-3,5C000000,-0724,0858,11895,028.5,045.5,0.494,740.1,01.18,0.508
2014-05-20 02:12:00,1791E-3,5C000000,-0724,0858,11716,028.5,045.5,0.493,740.1,01.18,0.508
2014-05-20 02:13:00,1761E-3,5C000000,-0724,0858,11856,028.5,045.5,0.493,740.1,01.18,0.508
2014-05-20 02:14:00,1670E-3,5C000000,-0724,0858,12043,028.5,045.5,0.493,740.1,01.18,0.508
2014-05-20 02:15:00,1768E-3,5C000000,-0724,0857,11978,028.5,045.5,0.493,740.0,01.18,0.508
2014-05-20 02:16:00,1659E-3,5C000000,-0724,0858,11792,028.5,045.5,0.493,740.0,01.18,0.508
2014-05-20 02:17:00,1831E-3,5C000000,-0724,0858,11952,028.5,045.5,0.493,740.0,01.18,0.508
2014-05-20 02:18:00,1806E-3,5C000000,-0724,0858,11856,028.6,045.5,0.494,740.0,01.18,0.508
2014-05-20 02:19:00,1746E-3,5C000000,-0724,0859,11868,028.6,045.5,0.494,740.0,01.18,0.508
2014-05-20 02:20:00,1756E-3,5C000000,-0724,0858,11952,028.6,045.5,0.494,740.0,01.18,0.508
2014-05-20 02:21:00,1707E-3,5C000000,-0724,0859,12004,028.6,045.5,0.494,740.0,01.18,0.508
2014-05-20 02:22:00,1715E-3,5C000000,-0724,0858,12020,028.6,045.5,0.494,740.0,01.18,0.508
2014-05-20 02:23:00,1849E-3,5C000000,-0724,0857,11956,028.6,045.5,0.494,740.0,01.18,0.508
2014-05-20 02:24:00,1847E-3,5C000000,-0724,0858,11731,028.6,045.5,0.494,740.0,01.18,0.508
2014-05-20 02:25:00,1710E-3,5C000000,-0724,0858,11960,028.6,045.5,0.494,740.0,01.18,0.508
2014-05-20 02:26:00,1729E-3,5C000000,-0724,0858,11797,028.6,045.5,0.493,740.0,01.18,0.508
2014-05-20 02:27:00,1674E-3,5C000000,-0724,0858,11874,028.7,045.5,0.493,739.9,01.18,0.508
2014-05-20 02:28:00,1690E-3,5C000000,-0724,0858,11968,028.7,045.5,0.493,739.9,01.18,0.508
2014-05-20 02:29:00,1722E-3,5C000000,-0724,0859,12050,028.7,045.5,0.493,739.9,01.18,0.508
2014-05-20 02:30:00,1696E-3,5C000000,-0724,0859,11717,028.7,045.5,0.493,739.9,01.18,0.508
2014-05-20 02:31:00,1646E-3,5C000000,-0724,0858,11709,028.7,045.5,0.493,739.9,01.18,0.508
2014-05-20 02:32:00,1709E-3,5C000000,-0724,0859,11684,028.7,045.5,0.493,739.8,01.18,0.508
2014-05-20 02:33:00,1743E-3,5C000000,-0724,0858,11937,028.7,045.5,0.493,739.8,01.18,0.508
2014-05-20 02:34:00,1817E-3,5C000000,-0724,0859,11898,028.7,045.5,0.493,739.8,01.18,0.508
2014-05-20 02:35:00,1762E-3,5C000000,-0724,0859,11869,028.7,045.5,0.493,739.8,01.18,0.508
2014-05-20 02:36:00,1588E-3,5C000000,-0724,0859,11933,028.7,045.5,0.493,739.8,01.18,0.508
2014-05-20 02:37:00,1769E-3,5C000000,-0724,0859,11987,028.8,045.5,0.493,739.8,01.18,0.508
2014-05-20 02:38:00,1772E-3,5C000000,-0724,0858,11854,028.8,045.5,0.493,739.9,01.18,0.508
2014-05-20 02:39:00,1747E-3,5C000000,-0724,0859,11901,028.8,045.5,0.493,739.8,01.18,0.508
2014-05-20 02:40:00,1877E-3,5C000000,-0724,0858,12081,028.8,045.5,0.493,739.8,01.18,0.508
2014-05-20 02:41:00,1765E-3,5C000000,-0724,0859,11900,028.8,045.5,0.493,739.8,01.18,0.508
2014-05-20 02:42:00,1742E-3,5C000000,-0724,0859,11743,028.8,045.5,0.493,739.8,01.18,0.508
2014-05-20 02:43:00,1716E-3,5C000000,-0724,0858,11901,028.8,045.5,0.493,739.8,01.18,0.508
2014-05-20 02:44:00,1733E-3,5C000000,-0724,0859,11810,028.8,045.5,0.493,739.8,01.18,0.508
2014-05-20 02:45:00,1788E-3,5C000000,-0724,0858,11866,028.9,045.5,0.493,739.8,01.18,0.508
2014-05-20 02:46:00,1702E-3,5C000000,-0724,0858,11946,028.9,045.5,0.493,739.7,01.18,0.508
2014-05-20 02:47:00,1749E-3,5C000000,-0724,0858,11983,028.9,045.5,0.493,739.7,01.18,0.508
2014-05-20 02:48:00,1735E-3,5C000000,-0724,0859,11759,028.9,045.5,0.493,739.7,01.18,0.508
2014-05-20 02:49:00,1649E-3,5C000000,-0724,0858,11939,028.9,045.5,0.493,739.8,01.18,0.508
2014-05-20 02:50:00,1670E-3,5C000000,-0724,0859,11897,028.9,045.5,0.493,739.8,01.18,0.508
2014-05-20 02:51:00,1616E-3,5C000000,-0724,0859,11892,028.9,045.5,0.493,739.8,01.18,0.508
2014-05-20 02:52:00,1776E-3,5C000000,-0724,0858,11998,028.9,045.5,0.493,739.8,01.18,0.508
2014-05-20 02:53:00,1743E-3,5C000000,-0724,0858,11889,028.9,045.5,0.493,739.8,01.18,0.508
2014-05-20 02:54:00,1693E-3,5C000000,-0724,0859,11866,028.9,045.5,0.493,739.8,01.18,0.508
2014-05-20 02:55:00,1655E-3,5C000000,-0724,0858,11949,029.0,045.5,0.493,739.8,01.18,0.508
2014-05-20 02:56:00,1756E-3,5C000000,-0724,0858,11900,029.0,045.5,0.493,739.8,01.18,0.508
2014-05-20 02:57:00,1687E-3,5C000000,-0724,0858,11896,029.0,045.5,0.493,739.8,01.18,0.508
2014-05-20 02:58:00,1738E-3,5C000000,-0724,0858,12083,029.0,045.5,0.493,739.8,01.18,0.508
2014-05-20 02:59:00,1795E-3,5C000000,-0724,0859,11861,029.0,045.5,0.493,739.8,01.18,0.508
2014-05-20 03:00:00,1820E-3,5C000000,-0724,0859,11820,029.0,045.5,0.493,739.8,01.18,0.508
2014-05-20 03:01:00,1715E-3,5C000000,-0724,0859,11721,029.0,045.5,0.493,739.8,01.18,0.508
2014-05-20 03:02:00,1745E-3,5C000000,-0724,0859,11952,029.1,045.5,0.492,739.8,01.18,0.508
2014-05-20 03:03:00,1841E-3,5C000000,-0724,0859,11943,029.0,045.5,0.493,739.8,01.18,0.508
2014-05-20 03:04:00,1742E-3,5C000000,-0724,0859,11990,029.1,045.5,0.493,739.7,01.18,0.508
2014-05-20 03:05:00,1802E-3,5C000000,-0724,0858,11929,029.1,045.5,0.493,739.7,01.18,0.508
2014-05-20 03:06:00,1779E-3,5C000000,-0724,0860,11714,029.1,045.5,0.493,739.7,01.18,0.508
2014-05-20 03:07:00,1804E-3,5C000000,-0724,0858,11858,029.1,045.5,0.493,739.7,01.18,0.508
2014-05-20 03:08:00,1767E-3,5C000000,-0724,0858,11783,029.1,045.5,0.493,739.7,01.18,0.508
2014-05-20 03:09:00,1731E-3,5C000000,-0724,0858,11768,029.1,045.5,0.493,739.7,01.18,0.508
2014-05-20 03:10:00,1756E-3,5C000000,-0724,0857,12011,029.1,045.5,0.493,739.7,01.18,0.508
2014-05-20 03:11:00,1613E-3,5C000000,-0724,0858,11740,029.1,045.5,0.493,739.7,01.18,0.508
2014-05-20 03:12:00,1721E-3,5C000000,-0724,0859,11853,029.1,045.5,0.493,739.7,01.18,0.508
2014-05-20 03:13:00,1849E-3,5C000000,-0724,0858,12068,029.1,045.5,0.493,739.6,01.18,0.508
2014-05-20 03:14:00,1765E-3,5C000000,-0724,0858,12044,029.1,045.5,0.492,739.6,01.18,0.508
2014-05-20 03:15:00,1659E-3,5C000000,-0724,0859,11809,029.2,045.5,0.492,739.7,01.18,0.508
2014-05-20 03:16:00,1615E-3,5C000000,-0724,0859,11905,029.2,045.5,0.493,739.6,01.18,0.508
2014-05-20 03:17:00,1741E-3,5C000000,-0724,0859,11955,029.2,045.5,0.493,739.6,01.18,0.508
2014-05-20 03:18:00,1742E-3,5C000000,-0724,0858,12009,029.2,045.5,0.493,739.6,01.18,0.508
2014-05-20 03:19:00,1724E-3,5C000000,-0724,0859,11883,029.2,045.5,0.493,739.6,01.18,0.508
2014-05-20 03:20:00,1753E-3,5C000000,-0724,0859,11923,029.2,045.5,0.492,739.6,01.18,0.508
2014-05-20 03:21:00,1647E-3,5C000000,-0724,0859,11803,029.2,045.5,0.492,739.6,01.18,0.508
2014-05-20 03:22:00,1890E-3,5C000000,-0724,0859,12060,029.2,045.5,0.492,739.6,01.18,0.508
2014-05-20 03:23:00,1708E-3,5C000000,-0724,0858,11773,029.2,045.5,0.492,739.6,01.18,0.508
2014-05-20 03:24:00,1788E-3,5C000000,-0724,0859,11676,029.2,045.5,0.493,739.6,01.18,0.508
2014-05-20 03:25:00,1747E-3,5C000000,-0724,0858,11852,029.3,045.5,0.493,739.6,01.18,0.508
2014-05-20 03:26:00,1697E-3,5C000000,-0724,0860,12035,029.3,045.5,0.493,739.6,01.18,0.508
2014-05-20 03:27:00,1790E-3,5C000000,-0724,0858,11944,029.3,045.5,0.492,739.6,01.18,0.508
2014-05-20 03:28:00,1710E-3,5C000000,-0724,0859,11924,029.3,045.5,0.492,739.6,01.18,0.508
2014-05-20 03:29:00,1852E-3,5C000000,-0724,0858,11826,029.3,045.5,0.492,739.6,01.18,0.508
2014-05-20 03:30:00,1752E-3,5C000000,-0724,0858,11987,029.3,045.5,0.492,739.6,01.18,0.508
2014-05-20 03:31:00,1792E-3,5C000000,-0724,0858,12010,029.3,045.5,0.493,739.6,01.18,0.508
2014-05-20 03:32:00,1829E-3,5C000000,-0724,0859,11994,029.3,045.5,0.493,739.6,01.18,0.508
2014-05-20 03:33:00,1641E-3,5C000000,-0724,0859,11938,029.3,045.6,0.492,739.6,01.18,0.508
2014-05-20 03:34:00,1720E-3,5C000000,-0724,0858,11881,029.3,045.5,0.492,739.6,01.18,0.508
2014-05-20 03:35:00,1597E-3,5C000000,-0724,0858,11822,029.3,045.5,0.492,739.6,01.18,0.508
2014-05-20 03:36:00,1834E-3,5C000000,-0724,0858,11718,029.4,045.5,0.492,739.6,01.18,0.508
2014-05-20 03:37:00,1708E-3,5C000000,-0724,0859,11990,029.4,045.5,0.493,739.6,01.18,0.508
2014-05-20 03:38:00,1575E-3,5C000000,-0724,0858,11672,029.4,045.5,0.492,739.5,01.18,0.508
2014-05-20 03:39:00,1844E-3,5C000000,-0724,0858,11956,029.4,045.5,0.492,739.5,01.18,0.508
2014-05-20 03:40:00,1798E-3,5C000000,-0724,0858,12013,029.4,045.5,0.492,739.5,01.18,0.508
2014-05-20 03:41:00,1784E-3,5C000000,-0724,0858,11855,029.4,045.5,0.492,739.6,01.18,0.508
2014-05-20 03:42:00,1737E-3,5C000000,-0724,0858,11987,029.4,045.5,0.493,739.6,01.18,0.508
2014-05-20 03:43:00,1776E-3,5C000000,-0724,0858,11942,029.4,045.5,0.493,739.6,01.18,0.508
2014-05-20 03:44:00,1833E-3,5C000000,-0724,0858,11975,029.4,045.6,0.492,739.6,01.18,0.508
2014-05-20 03:45:00,1810E-3,5C000000,-0724,0858,11959,029.4,045.6,0.492,739.6,01.18,0.508
2014-05-20 03:46:00,1723E-3,5C000000,-0724,0858,11972,029.5,045.6,0.492,739.6,01.18,0.508
2014-05-20 03:47:00,1719E-3,5C000000,-0724,0859,11970,029.5,045.5,0.492,739.6,01.18,0.508
2014-05-20 03:48:00,1675E-3,5C000000,-0724,0857,11950,029.5,045.6,0.492,739.6,01.18,0.508
2014-05-20 03:49:00,1574E-3,5C000000,-0724,0858,11887,029.5,045.5,0.492,739.6,01.18,0.508
2014-05-20 03:50:00,1751E-3,5C000000,-0724,0859,12013,029.5,045.5,0.492,739.6,01.18,0.508
2014-05-20 03:51:00,1707E-3,5C000000,-0724,0857,11953,029.5,045.5,0.492,739.6,01.18,0.508
2014-05-20 03:52:00,1470E-3,5C000000,-0724,0858,11769,029.5,045.5,0.492,739.6,01.18,0.508
2014-05-20 03:53:00,1828E-3,5C000000,-0724,0858,12066,029.5,045.5,0.492,739.5,01.18,0.508
2014-05-20 03:54:00,1685E-3,5C000000,-0724,0858,12080,029.5,045.6,0.492,739.5,01.18,0.508
2014-05-20 03:55:00,1848E-3,5C000000,-0724,0859,12002,029.6,045.5,0.492,739.5,01.18,0.508
2014-05-20 03:56:00,1797E-3,5C000000,-0724,0859,11854,029.6,045.5,0.492,739.5,01.18,0.508
2014-05-20 03:57:00,1815E-3,5C000000,-0724,0859,11849,029.6,045.5,0.492,739.5,01.18,0.508
2014-05-20 03:58:00,1768E-3,5C000000,-0724,0857,12080,029.6,045.5,0.492,739.4,01.18,0.508
2014-05-20 03:59:00,1737E-3,5C000000,-0724,0858,11913,029.6,045.6,0.492,739.4,01.18,0.508
2014-05-20 04:00:00,1762E-3,5C000000,-0724,0857,11966,029.6,045.5,0.492,739.4,01.18,0.508
2014-05-20 04:01:00,1695E-3,5C000000,-0724,0858,11998,029.6,045.5,0.492,739.4,01.18,0.508
2014-05-20 04:02:00,1680E-3,5C000000,-0724,0857,12007,029.6,045.5,0.492,739.4,01.18,0.508
2014-05-20 04:03:00,1793E-3,5C000000,-0724,0857,11897,029.6,045.5,0.492,739.4,01.18,0.508
2014-05-20 04:04:00,1779E-3,5C000000,-0724,0857,12041,029.6,045.5,0.492,739.4,01.18,0.508
2014-05-20 04:05:00,1804E-3,5C000000,-0724,0858,11760,029.7,045.5,0.492,739.4,01.18,0.508
2014-05-20 04:06:00,1719E-3,5C000000,-0724,0859,11735,029.7,045.5,0.492,739.4,01.18,0.508
2014-05-20 04:07:00,1654E-3,5C000000,-0724,0858,11770,029.7,045.5,0.492,739.4,01.18,0.508
2014-05-20 04:08:00,1746E-3,5C000000,-0724,0858,11978,029.7,045.6,0.492,739.4,01.18,0.508
2014-05-20 04:09:00,1770E-3,5C000000,-0724,0857,11979,029.7,045.6,0.492,739.4,01.18,0.508
2014-05-20 04:10:00,1701E-3,5C000000,-0724,0858,11844,029.7,045.5,0.492,739.4,01.18,0.508
2014-05-20 04:11:00,1750E-3,5C000000,-0724,0858,11847,029.7,045.5,0.492,739.4,01.18,0.508
2014-05-20 04:12:00,1673E-3,5C000000,-0724,0860,12084,029.7,045.5,0.491,739.4,01.18,0.508
2014-05-20 04:13:00,1760E-3,5C000000,-0724,0859,11962,029.7,045.5,0.492,739.4,01.18,0.508
2014-05-20 04:14:00,1773E-3,5C000000,-0724,0858,11919,029.7,045.5,0.492,739.3,01.18,0.508
2014-05-20 04:15:00,1561E-3,5C000000,-0724,0859,11951,029.8,045.5,0.491,739.3,01.18,0.508
2014-05-20 04:16:00,1736E-3,5C000000,-0724,0859,12046,029.8,045.5,0.492,739.3,01.18,0.508
2014-05-20 04:17:00,1675E-3,5C000000,-0724,0858,12078,029.8,045.5,0.492,739.3,01.18,0.508
2014-05-20 04:18:00,1805E-3,5C000000,-0724,0858,11898,029.8,045.6,0.491,739.3,01.18,0.508
2014-05-20 04:19:00,1644E-3,5C000000,-0724,0859,11589,029.8,045.6,0.492,739.2,01.18,0.508
2014-05-20 04:20:00,1609E-3,5C000000,-0724,0857,11973,029.8,045.5,0.491,739.3,01.18,0.508